Northeast Philadelphia, PA

4:07 PM EDT on June 25, 2017 (GMT -0400)
Northeast Philadelphia

Weather History for KPNE - March, 2014

Change the Weather History Date:

Sunday, March 9, 2014

  Actual Average Record
Temperature  
Mean Temperature 42 °F -  
Max Temperature 46 °F 46 °F 81 °F (2016)
Min Temperature 37 °F 29 °F 17 °F (2007)
Degree Days  
Heating Degree Days 24    
Moisture  
Dew Point 24 °F    
Average Humidity 53    
Maximum Humidity 79    
Minimum Humidity 29    
Precipitation  
Precipitation 0.02 in - - ()
Sea Level Pressure  
Sea Level Pressure 30.00 in    
Wind  
Wind Speed 10 mph (NW)    
Max Wind Speed 16 mph    
Max Gust Speed 25 mph    
Visibility 8 miles    
Events Rain    
Averages and records for this station are not official NWS values.
T = Trace of Precipitation, MM = Missing Value Source: NWS Daily Summary

Daily Weather History Graph

Daily Weather History Graph

Search for Another Location

Airport or City:

Trip Planner

Search our weather history database for the weather conditions in past years. The results will help you decide how hot, cold, wet, or windy it might be!

Date:

Astronomy

Mar. 09, 2014 Rise Set
Actual Time 7:21 AM EDT 7:00 PM EDT
Civil Twilight 6:54 AM EDT 7:27 PM EDT
Nautical Twilight 6:22 AM EDT 7:59 PM EDT
Astronomical Twilight 5:51 AM EDT 8:30 PM EDT
Moon 12:51 PM EDT (3/9) 3:44 AM EDT (3/9)
Length of Visible Light 12h 33m
Length of Day
11h 39m
First Quarter, 61% of the Moon is Illuminated
Mar 9
First Quarter
Mar 16
Full
Mar 23
Last Quarter
Mar 30
New
Apr 7
First Quarter

Hourly Weather History & Observations

Time (EDT) Temp. Windchill Dew Point Humidity Pressure Visibility Wind Dir Wind Speed Gust Speed Precip Events Conditions
12:54 AM 46.0 °F 41.4 °F 33.1 °F 61% 29.93 in 9.0 mi NW 9.2 mph - 0.00 in   Overcast
1:54 AM 44.1 °F 40.8 °F 34.0 °F 68% 29.94 in 8.0 mi NW 5.8 mph - 0.00 in Rain Light Rain
3:26 AM 43.0 °F 36.4 °F 33.1 °F 68% 29.94 in 7.0 mi North 12.7 mph - 0.00 in Rain Light Rain
3:47 AM 41.0 °F 33.5 °F 33.1 °F 73% 29.94 in 5.0 mi North 13.8 mph - 0.00 in Rain Light Rain
3:54 AM 41.0 °F 33.9 °F 33.1 °F 73% 29.95 in 5.0 mi North 12.7 mph - 0.01 in Rain Light Rain
4:03 AM 39.9 °F 33.4 °F 33.1 °F 77% 29.95 in 5.0 mi North 10.4 mph - 0.00 in Rain Light Rain
4:54 AM 39.0 °F 34.0 °F 33.1 °F 79% 29.96 in 5.0 mi NNW 6.9 mph - 0.01 in   Haze
5:54 AM 39.0 °F 34.8 °F 33.1 °F 79% 29.97 in 4.0 mi NNW 5.8 mph - N/A   Haze
6:10 AM 39.0 °F 35.7 °F 33.1 °F 79% 29.97 in 4.0 mi WNW 4.6 mph - N/A   Haze
6:38 AM 39.0 °F 34.0 °F 33.1 °F 79% 29.98 in 5.0 mi NNW 6.9 mph - N/A   Haze
6:54 AM 39.0 °F 33.4 °F 32.0 °F 76% 29.99 in 5.0 mi NNW 8.1 mph - N/A   Haze
7:05 AM 39.0 °F 33.4 °F 30.9 °F 73% 29.99 in 5.0 mi NNW 8.1 mph - N/A   Haze
7:54 AM 37.9 °F 32.1 °F 28.9 °F 70% 30.01 in 5.0 mi NNW 8.1 mph - N/A   Haze
8:54 AM 39.9 °F 35.1 °F 26.1 °F 58% 30.04 in 9.0 mi NNW 6.9 mph - N/A   Mostly Cloudy
9:54 AM 42.1 °F 34.2 °F 21.9 °F 45% 30.06 in 10.0 mi NNW 16.1 mph - N/A   Clear
10:54 AM 43.0 °F 36.0 °F 19.0 °F 38% 30.07 in 10.0 mi NW 13.8 mph 20.7 mph N/A   Clear
11:54 AM 45.0 °F 38.2 °F 21.0 °F 39% 30.07 in 10.0 mi NNW 15.0 mph 20.7 mph N/A   Scattered Clouds
12:54 PM 45.0 °F 37.9 °F 19.0 °F 36% 30.06 in 10.0 mi West 16.1 mph 21.9 mph N/A   Scattered Clouds
1:54 PM 45.0 °F 38.9 °F 19.0 °F 36% 30.05 in 10.0 mi West 12.7 mph 23.0 mph N/A   Partly Cloudy
2:54 PM 46.0 °F 39.6 °F 18.0 °F 33% 30.04 in 10.0 mi WNW 15.0 mph - N/A   Clear
3:54 PM 45.0 °F 38.2 °F 15.1 °F 30% 30.03 in 10.0 mi WNW 15.0 mph 25.3 mph N/A   Clear
4:54 PM 45.0 °F 39.3 °F 14.0 °F 29% 30.01 in 10.0 mi WNW 11.5 mph - N/A   Clear
5:54 PM 43.0 °F 37.2 °F 14.0 °F 31% 30.01 in 10.0 mi West 10.4 mph 19.6 mph N/A   Clear
6:54 PM 42.1 °F 36.6 °F 12.9 °F 31% 30.02 in 10.0 mi WNW 9.2 mph - N/A   Clear
7:54 PM 39.9 °F 34.5 °F 12.9 °F 33% 30.03 in 10.0 mi West 8.1 mph - N/A   Clear
8:54 PM 39.9 °F 35.1 °F 16.0 °F 38% 30.04 in 10.0 mi West 6.9 mph - N/A   Clear
9:54 PM 39.9 °F 34.5 °F 16.0 °F 38% 30.04 in 10.0 mi West 8.1 mph - N/A   Clear
10:54 PM 39.9 °F 35.8 °F 15.1 °F 36% 30.03 in 10.0 mi West 5.8 mph - N/A   Clear
11:54 PM 39.0 °F 34.0 °F 15.1 °F 38% 30.01 in 10.0 mi West 6.9 mph - N/A   Clear
12:54 AM 39.9 °F 33.9 °F 15.1 °F 36% 29.98 in 10.0 mi West 9.2 mph - N/A   Mostly Cloudy